Regional Weather Roundup
Issued by NWS Kansas City/Pleasant Hill, MO

Home | Current Version | Previous Version | Graphics & Text | Print | Product List | Glossary Off
Versions: 1 2 3 4 5 6 7 8 9 10 11 12 13 14 15 16 17 18 19 20 21 22 23 24 25 26 27

000
ASUS43 KEAX 210110
RWREAX

WEATHER ROUNDUP FOR EASTERN KANSAS AND NORTHWEST MISSOURI
NATIONAL WEATHER SERVICE KANSAS CITY/PLEASANT HILL MO
800 PM CDT FRI OCT 20 2017

KSZ040-057-103>105-MOZ028-029-037-043-210200-
...KANSAS CITY METROPOLITAN AREA...

CITY           SKY/WX    TMP DP  RH WIND       PRES   REMARKS
K.C. INTL      CLEAR     67  57  70 S14       29.86S
K.C. DOWNTOWN  CLEAR     70  58  65 S15G21    29.87R
LEES SUMMIT    CLEAR     67  57  70 S16       29.89S
OLATHE - IXD   CLEAR     67  56  67 SE15      29.87S
OLATHE - OJC   CLEAR     66  57  72 S14       29.88R
LAWRENCE       CLEAR     68  57  68 SE10      29.85R

$$

MOZ001>008-011>017-020>025-030>033-038>040-044>046-053-054-210200-
...NORTHERN AND CENTRAL MISSOURI...

CITY           SKY/WX    TMP DP  RH WIND       PRES   REMARKS
ST. JOSEPH     LGT RAIN  69  58  67 S14       29.83S
MOSBY          CLEAR     66  55  68 SE7       29.88S
WARRENSBURG    CLEAR     63  54  72 SE9       29.91S
WHITEMAN AFB   PTCLDY    65  54  66 S10G18    29.88F
CLINTON        MOCLDY    66  55  68 SE8       29.93F
SEDALIA        CLOUDY    66  56  70 SE14      29.95F
WARSAW         NOT AVBL
CHILLICOTHE      N/A     66  54  65 S7        29.91S
KIRKSVILLE     CLOUDY    64  52  64 S12       29.95S

$$

MOZ041-047>049-056>058-063>065-088>090-097-210200-
...EASTERN AND SOUTHERN MISSOURI...

CITY           SKY/WX    TMP DP  RH WIND       PRES   REMARKS
ST. LOUIS INTL CLOUDY    71  50  47 SE15      30.05F
SPIRIT OF STL  MOCLDY    70  50  49 VRB6      30.03F
COLUMBIA       PTCLDY    67  52  58 SE14      29.98F
JEFFERSON CITY CLOUDY    67  50  54 SE8       29.98F
ROLLA          PTCLDY    67  53  61 S14G20    30.04R
OSAGE BEACH    PTCLDY    66  55  67 S8        30.00S
SPRINGFIELD    PTCLDY    66  59  78 S22G31    29.98S
BRANSON        PTCLDY    64  59  82 SE12G17   30.03F
JOPLIN         CLEAR     68  58  70 SE12      29.93S
WEST PLAINS    CLOUDY    67  55  65 SE10      30.08F

$$

IAZ060-094-KSZ022-034>040-054-083-096-NEZ052-066-093-210200-
...KANSAS...SOUTHEAST NEBRASKA AND IOWA...

CITY           SKY/WX    TMP DP  RH WIND       PRES   REMARKS
TOPEKA         CLEAR     69  58  67 SE14      29.82R
MANHATTAN      CLEAR     70  58  65 S16G28    29.75R
EMPORIA        MOCLDY    68  59  73 S17G28    29.81F
CHANUTE        CLEAR     67  58  72 SE12      29.88S
WICHITA        CLOUDY    72  58  61 S21G29    29.77R
OMAHA          PTCLDY    72  57  59 S25G32    29.71R
LINCOLN        MOCLDY    72  57  59 S23G32    29.69R
FALLS CITY     CLEAR     68  57  68 S13       29.78S
LAMONI         PTCLDY    64  55  72 SE10      29.87S
DES MOINES     CLOUDY    66  52  60 S16G25    29.84F

$$





USA.gov is the U.S. government's official web portal to all federal, state and local government web resources and services.